Total_Precipitation_Accumulation
0.18 0.23 0.29 0.35 0.23 0.21 0.18 0.15 0.12 0.11 0.09 0.04 0.03 0.02 0.02 0.02 0.02 0.02 0.04 0.06 0.08 0.12 0.17 0.15 0.14 0.13 0.14 0.15 0.15 0.15 0.15 0.13 0.14 0.13 0.10 0.07 0.06 0.05 0.05 0.05 0.06 0.07 0.08
0.27 0.34 0.32 0.31 0.22 0.19 0.22 0.27 0.26 0.17 0.12 0.09 0.06 0.05 0.05 0.05 0.05 0.05 0.06 0.09 0.12 0.14 0.19 0.20 0.20 0.21 0.20 0.18 0.18 0.18 0.18 0.18 0.18 0.19 0.17 0.15 0.13 0.11 0.10 0.09 0.10 0.10 0.09
0.21 0.27 0.32 0.32 0.27 0.24 0.22 0.21 0.25 0.26 0.21 0.18 0.14 0.10 0.10 0.12 0.11 0.10 0.09 0.10 0.13 0.16 0.19 0.19 0.20 0.19 0.19 0.19 0.18 0.20 0.21 0.20 0.20 0.19 0.19 0.20 0.20 0.21 0.20 0.18 0.18 0.19 0.16
0.23 0.29 0.35 0.38 0.37 0.36 0.37 0.35 0.32 0.32 0.32 0.27 0.23 0.21 0.19 0.20 0.18 0.16 0.14 0.14 0.17 0.18 0.19 0.17 0.15 0.14 0.14 0.16 0.17 0.20 0.24 0.26 0.27 0.24 0.22 0.21 0.23 0.22 0.23 0.23 0.24 0.24 0.23
0.42 0.46 0.51 0.55 0.55 0.57 0.54 0.49 0.44 0.39 0.39 0.34 0.25 0.20 0.19 0.20 0.17 0.14 0.14 0.14 0.14 0.13 0.13 0.12 0.12 0.13 0.12 0.13 0.14 0.15 0.17 0.20 0.23 0.23 0.21 0.20 0.22 0.23 0.21 0.21 0.23 0.25 0.27
0.81 0.79 0.79 0.79 0.80 0.74 0.66 0.56 0.48 0.42 0.36 0.31 0.21 0.15 0.13 0.12 0.10 0.08 0.08 0.08 0.08 0.07 0.06 0.06 0.06 0.07 0.09 0.09 0.08 0.09 0.10 0.12 0.14 0.15 0.15 0.17 0.21 0.21 0.19 0.18 0.20 0.24 0.26
1.28 1.18 1.10 1.06 0.98 0.86 0.72 0.58 0.48 0.40 0.33 0.26 0.21 0.16 0.09 0.06 0.04 0.04 0.04 0.04 0.03 0.03 0.03 0.03 0.03 0.03 0.04 0.05 0.04 0.05 0.05 0.06 0.07 0.08 0.10 0.15 0.18 0.14 0.14 0.13 0.15 0.20 0.24
1.72 1.60 1.51 1.39 1.19 1.00 0.82 0.65 0.51 0.41 0.33 0.26 0.22 0.19 0.13 0.07 0.04 0.02 0.02 0.02 0.02 0.02 0.02 0.02 0.02 0.02 0.02 0.02 0.01 0.02 0.03 0.04 0.03 0.05 0.08 0.12 0.15 0.13 0.12 0.12 0.13 0.16 0.21
2.04 1.86 1.74 1.58 1.37 1.14 0.95 0.75 0.56 0.43 0.33 0.24 0.16 0.13 0.11 0.09 0.05 0.02 0.02 0.02 0.02 0.02 0.01 0.01 0.01 0.01 0.01 0.01 0.00 0.01 0.01 0.03 0.03 0.03 0.06 0.11 0.13 0.12 0.12 0.13 0.15 0.17 0.21
1.82 1.63 1.46 1.28 1.11 0.93 0.77 0.59 0.43 0.30 0.21 0.15 0.11 0.08 0.06 0.05 0.05 0.03 0.01 0.01 0.01 0.01 0.01 0.00 0.00 0.01 0.01 0.01 0.01 0.00 0.00 0.02 0.03 0.03 0.03 0.06 0.10 0.12 0.12 0.13 0.14 0.17 0.21
1.54 1.33 1.14 0.94 0.74 0.58 0.46 0.36 0.26 0.21 0.17 0.13 0.09 0.07 0.05 0.04 0.03 0.04 0.03 0.01 0.00 0.00 0.00 0.00 0.00 0.00 0.00 0.00 0.01 0.01 0.01 0.02 0.02 0.03 0.03 0.03 0.05 0.09 0.12 0.12 0.13 0.15 0.19
1.22 0.95 0.72 0.53 0.39 0.31 0.26 0.23 0.18 0.14 0.10 0.07 0.04 0.03 0.03 0.02 0.02 0.02 0.02 0.01 0.00 0.00 0.00 0.00 0.00 0.00 0.00 0.00 0.00 0.00 0.01 0.02 0.03 0.03 0.02 0.02 0.02 0.04 0.07 0.10 0.13 0.17 0.20
0.77 0.56 0.42 0.34 0.27 0.21 0.16 0.12 0.09 0.06 0.04 0.03 0.02 0.02 0.01 0.01 0.01 0.01 0.01 0.01 0.00 0.00 0.00 0.00 0.00 0.00 0.00 0.00 0.00 0.00 0.01 0.03 0.03 0.03 0.02 0.01 0.01 0.02 0.03 0.04 0.08 0.12 0.17
0.51 0.40 0.34 0.28 0.20 0.12 0.07 0.05 0.04 0.03 0.02 0.01 0.01 0.01 0.01 0.01 0.01 0.01 0.01 0.01 0.02 0.01 0.00 0.00 0.00 0.00 0.00 0.00 0.00 0.00 0.02 0.02 0.03 0.04 0.03 0.02 0.02 0.02 0.02 0.04 0.05 0.07 0.09
0.30 0.22 0.18 0.14 0.08 0.04 0.03 0.02 0.02 0.01 0.01 0.01 0.01 0.02 0.02 0.01 0.01 0.02 0.02 0.04 0.06 0.05 0.02 0.00 0.00 0.00 0.00 0.00 0.00 0.01 0.04 0.05 0.04 0.04 0.04 0.03 0.03 0.03 0.03 0.04 0.05 0.05 0.06
0.18 0.12 0.08 0.05 0.03 0.02 0.02 0.01 0.01 0.01 0.01 0.01 0.01 0.02 0.03 0.02 0.03 0.04 0.05 0.05 0.06 0.08 0.06 0.02 0.01 0.01 0.02 0.02 0.01 0.03 0.06 0.06 0.05 0.04 0.04 0.04 0.05 0.05 0.05 0.06 0.07 0.09 0.09
0.13 0.10 0.08 0.06 0.04 0.03 0.02 0.02 0.02 0.02 0.02 0.02 0.02 0.03 0.04 0.05 0.07 0.06 0.06 0.06 0.06 0.09 0.11 0.05 0.02 0.03 0.06 0.08 0.09 0.12 0.12 0.13 0.11 0.08 0.07 0.08 0.08 0.08 0.08 0.10 0.11 0.12 0.13
0.13 0.11 0.08 0.06 0.05 0.04 0.03 0.03 0.03 0.03 0.03 0.03 0.03 0.04 0.05 0.06 0.08 0.07 0.06 0.06 0.07 0.10 0.14 0.12 0.08 0.07 0.10 0.13 0.15 0.15 0.08 0.07 0.11 0.09 0.08 0.09 0.10 0.12 0.13 0.13 0.13 0.12 0.10
0.10 0.09 0.08 0.07 0.05 0.04 0.03 0.03 0.03 0.03 0.03 0.03 0.03 0.04 0.05 0.06 0.06 0.06 0.07 0.06 0.07 0.09 0.15 0.19 0.15 0.14 0.12 0.11 0.14 0.12 0.12 0.17 0.11 0.08 0.08 0.08 0.09 0.09 0.08 0.08 0.07 0.07 0.06
0.10 0.09 0.08 0.06 0.04 0.03 0.02 0.02 0.01 0.01 0.02 0.02 0.03 0.04 0.04 0.04 0.06 0.07 0.07 0.08 0.12 0.16 0.18 0.21 0.17 0.13 0.11 0.10 0.16 0.16 0.14 0.15 0.13 0.09 0.09 0.08 0.07 0.05 0.04 0.03 0.04 0.05 0.05
0.09 0.07 0.05 0.04 0.03 0.02 0.01 0.01 0.00 0.00 0.01 0.02 0.02 0.02 0.03 0.04 0.06 0.06 0.07 0.11 0.17 0.22 0.22 0.22 0.18 0.13 0.10 0.12 0.16 0.19 0.18 0.13 0.10 0.08 0.10 0.07 0.08 0.07 0.08 0.07 0.05 0.04 0.04
0.04 0.03 0.02 0.01 0.01 0.00 0.00 0.00 0.00 0.00 0.01 0.02 0.03 0.03 0.03 0.03 0.03 0.03 0.06 0.11 0.18 0.22 0.23 0.23 0.20 0.18 0.14 0.17 0.23 0.25 0.25 0.25 0.19 0.13 0.16 0.10 0.08 0.09 0.11 0.12 0.11 0.07 0.06
0.02 0.02 0.01 0.01 0.02 0.01 0.00 0.00 0.00 0.00 0.02 0.04 0.05 0.06 0.04 0.02 0.04 0.07 0.08 0.08 0.09 0.10 0.16 0.25 0.26 0.24 0.23 0.25 0.36 0.36 0.34 0.34 0.28 0.21 0.26 0.19 0.13 0.14 0.12 0.12 0.12 0.11 0.08
0.02 0.02 0.02 0.02 0.03 0.02 0.00 0.00 0.00 0.01 0.03 0.04 0.05 0.06 0.06 0.06 0.07 0.07 0.06 0.05 0.06 0.08 0.11 0.16 0.25 0.25 0.23 0.26 0.37 0.41 0.39 0.35 0.27 0.23 0.33 0.33 0.19 0.16 0.12 0.19 0.22 0.17 0.12
0.02 0.02 0.02 0.02 0.04 0.05 0.01 0.00 0.00 0.01 0.02 0.02 0.03 0.04 0.06 0.08 0.08 0.08 0.07 0.07 0.08 0.09 0.10 0.16 0.23 0.28 0.33 0.39 0.42 0.43 0.46 0.46 0.36 0.27 0.37 0.43 0.32 0.25 0.18 0.23 0.27 0.22 0.20
0.02 0.02 0.02 0.03 0.05 0.07 0.02 0.00 0.01 0.01 0.02 0.02 0.03 0.04 0.07 0.07 0.07 0.07 0.06 0.10 0.15 0.14 0.17 0.22 0.36 0.53 0.59 0.58 0.51 0.47 0.48 0.49 0.47 0.48 0.46 0.50 0.43 0.35 0.29 0.25 0.28 0.30 0.34